Skip Page Navigation
NASA JPL Caltech
NASA Logo - Jet Propulsion Laboratory + View the NASA Portal
+ Center for Near-Earth Object Studies
JPL Home Earth Solar System Stars & Galaxies Technology
JPL Solar System Dynamics
BODIES ORBITS EPHEMERIDES TOOLS PHYSICAL DATA DISCOVERY FAQ SITE MAP
JPL Small-Body Database Browser
Search: [ help ]  
487414 (2014 QA378)
Classification: Main-belt Asteroid          SPK-ID: 2487414
Ephemeris | Orbit Diagram | Orbital Elements | Mission Design | Physical Parameters | Discovery Circumstances ]

[ show orbit diagram ]
Orbital Elements at Epoch 2459000.5 (2020-May-31.0) TDB
Reference: JPL 11 (heliocentric ecliptic J2000)
 Element Value Uncertainty (1-sigma)   Units 
e .07956689874991464 3.2766e-07  
a 3.021155566766183 1.0344e-07 au
q 2.780771587677557 1.0656e-06 au
i 15.63759513778239 2.3688e-05 deg
node 348.8959344528178 2.3111e-05 deg
peri 336.7795588867342 0.00015078 deg
M 60.48248265663501 0.00013109 deg
tp 2458678.255755875244
(2019-Jul-13.75575588)
0.00071193 TDB
period 1918.041766630193
5.25
9.8507e-05
2.697e-07
d
yr
n .1876914289684546 9.6395e-09 deg/d
Q 3.261539545854809 1.1167e-07 au
  Orbit Determination Parameters
   # obs. used (total)      65  
   data-arc span      3677 days (10.07 yr)  
   first obs. used      2009-09-30  
   last obs. used      2019-10-25  
   planetary ephem.      DE431  
   SB-pert. ephem.      SB431-N16  
   condition code      0  
   norm. resid. RMS      .61466  
   source      ORB  
   producer      Otto Matic  
   solution date      2019-Nov-08 18:44:54  

Additional Information
 Earth MOID = 1.77673 au 
 Jupiter MOID = 2.14735 au 
 T_jup = 3.185 
[ show covariance matrix ]

Ephemeris | Orbit Diagram | Orbital Elements | Mission Design | Physical Parameters | Discovery Circumstances ]

Physical Parameter Table
Parameter Symbol Value Units Sigma Reference Notes
absolute magnitude H 16.6   n/a MPO495388  

487414 (2014 QA378)          Discovered 2012-Feb-25 by Spacewatch at Kitt Peak
Reference: Last Updated: 2017-03-14
Ephemeris | Orbit Diagram | Orbital Elements | Mission Design | Physical Parameters | Discovery Circumstances ]
ABOUT SSD CREDITS/AWARDS PRIVACY/COPYRIGHT GLOSSARY LINKS
FirstGov 2020-Jul-10 07:59 UT
(server date/time)  
NASA Home Page
Site Manager:   Ryan S. Park
Webmaster  Alan B. Chamberlin